Details for FedEx at KGSO




Go Back


Latest METAR
Local Time

KGSO 180554Z 24008KT 10SM FEW120 FEW180 24/22 A3006 RMK AO2 SLP165 T02440217 10278 20244 58005
18/08/2018, 02:28:53

Description
Results
FedEx Logo
Number of Pilots based at KGSO
0 Pilots Based here
Number of FedEx Flights Departed from KGSO
0 Flights Departed
Number of FedEx Flights Arrived at KGSO
0 Flights Arrived
Number of FedEx Schedules Departing from KGSO
13 Schedules
Number of FedEx Schedules Arriving at KGSO
12 Schedules
Number of FedEx Schedules Departing from KGSO availible today
4 Schedules Today
Number of FedEx Schedules Arriving at KGSO availible today
5 Schedules Today
Average Landing Rate at KGSO
0 fpm
FedEx Average Landing Rate at KGSO
0 fpm
Total Fuel Purchased at KGSO by FedEx
0.00 kgs / 0.00 lbs

Pilots Based at KGSO


Pilot ID
Pilot Name
Pilot Rank
No. of Flights
No. of Flying Hours
There are no pilots assigned to this hub!   Will you be the first?
Content